Probability
11 10 10 9 7 5 4 4 4 4 4 4 3 1 0 0 1 3 3 2 1 1 2 3 4 5 5 6 6 5 2 1 1 0 0 0 0 0 0 0 0 0 0
12 11 11 9 7 6 5 4 4 5 5 5 3 2 1 1 1 1 2 2 2 2 2 2 3 4 4 4 5 5 4 3 2 1 1 1 0 0 0 0 0 0 0
14 14 12 10 7 6 6 4 5 6 6 5 4 3 3 2 1 1 0 1 1 1 1 1 1 2 3 4 5 5 6 5 4 3 3 2 0 0 0 1 1 1 1
16 15 14 11 9 8 6 5 5 6 7 7 6 5 4 3 3 2 1 1 1 0 0 0 0 1 2 3 5 6 6 6 4 3 3 1 0 0 1 3 3 3 2
15 14 13 11 11 10 7 6 6 8 9 9 8 8 6 5 4 3 3 2 2 1 1 1 1 0 1 2 3 4 5 5 5 3 2 1 1 1 3 4 4 4 3
13 11 10 11 12 11 9 8 9 9 10 10 9 9 8 7 5 3 3 3 3 3 3 3 2 1 1 1 1 1 2 3 5 4 3 2 2 3 3 4 4 3 3
9 9 9 10 12 12 10 10 10 10 10 9 8 8 7 5 3 2 2 2 3 4 4 4 3 2 2 1 1 0 1 2 3 3 3 3 3 3 3 3 3 3 3
8 8 8 9 10 11 10 9 9 9 9 8 7 7 6 3 1 0 1 1 1 1 2 3 3 2 2 2 1 1 2 2 1 1 2 2 2 3 3 3 3 3 2
7 8 8 8 8 8 7 6 7 7 7 6 6 6 5 3 1 0 0 0 0 0 0 1 1 1 1 1 2 2 2 2 1 0 1 1 1 1 2 3 2 3 3
7 7 7 7 7 6 5 4 4 5 6 5 5 4 4 3 1 0 0 0 0 0 0 0 0 0 0 0 1 2 3 3 2 1 0 0 0 0 1 2 3 3 3
7 7 6 6 6 6 4 3 3 4 5 5 4 4 3 2 1 0 0 0 0 0 0 0 0 0 0 0 1 2 2 2 2 1 0 0 0 0 0 1 2 2 1
8 8 7 7 6 6 5 4 3 3 4 4 4 3 2 1 0 0 0 0 0 0 0 0 1 0 0 0 0 1 1 1 1 1 0 0 0 0 0 0 1 1 0
8 9 8 7 6 6 6 4 3 3 3 3 3 2 1 0 0 0 0 0 0 0 0 0 0 0 0 0 0 0 0 0 0 0 0 0 0 0 0 0 0 0 0
8 9 9 7 6 6 6 4 3 3 3 2 1 1 0 0 0 0 0 0 0 0 0 0 0 0 0 0 0 0 0 0 0 0 0 0 0 0 0 0 0 0 0
8 8 8 7 6 6 6 5 3 2 1 1 0 0 0 0 0 0 0 0 0 0 0 0 0 0 0 0 0 1 1 0 0 0 0 0 0 0 0 0 0 0 0
8 8 8 7 6 6 6 4 2 1 0 0 0 0 0 0 0 0 0 0 0 0 0 0 0 0 1 1 2 2 2 1 0 0 0 0 0 0 0 0 0 0 0
7 7 7 7 6 6 5 3 1 0 0 0 0 0 0 0 0 0 0 0 0 0 0 0 0 0 1 2 2 3 2 1 0 0 0 0 0 0 0 0 0 0 0
6 6 5 5 5 4 4 3 2 1 0 0 0 0 0 0 0 0 0 0 0 0 0 0 0 0 0 1 1 1 1 0 0 0 0 0 0 0 0 0 0 0 0
6 5 4 4 4 3 3 3 2 1 0 0 0 0 0 0 0 0 0 0 0 0 0 0 0 0 0 0 0 0 0 0 0 0 0 0 0 0 0 0 0 0 0
5 4 3 2 2 2 1 2 2 1 0 0 0 0 0 0 0 0 0 0 0 0 0 0 0 0 0 0 0 0 0 0 0 0 0 0 0 0 0 0 0 0 0
2 2 1 1 2 1 1 1 1 0 0 0 0 0 0 0 0 0 0 0 0 0 0 0 0 0 0 0 0 0 0 0 0 0 0 0 0 0 0 0 0 0 0
0 0 1 1 1 1 0 0 0 0 0 0 0 0 0 0 0 0 0 0 0 0 0 0 0 0 0 0 0 0 0 0 0 0 0 0 0 0 0 0 0 0 0
0 0 0 1 1 0 0 0 0 0 0 0 0 0 0 0 0 0 0 0 0 0 0 0 0 0 0 0 0 0 0 0 0 0 0 0 0 0 0 0 0 0 0
0 0 0 0 0 0 0 0 0 0 0 0 0 0 0 0 0 0 0 0 0 0 0 0 0 0 0 0 0 0 0 0 0 0 0 0 0 0 0 0 0 0 0
0 0 0 0 0 0 0 0 0 0 0 0 0 0 0 0 0 0 0 0 0 0 0 0 0 0 0 0 0 0 0 0 0 0 0 0 0 0 0 0 0 0 0
0 0 0 0 0 0 0 0 0 0 0 0 0 0 0 0 0 0 0 0 0 0 0 0 0 0 0 0 0 0 0 0 0 0 0 0 0 0 0 0 0 0 0
Wind_Speed
5 4 4 3 3 3 2 2 2 2 2 2 2 2 2 2 2 2 2 2 2 1 1 1 2 1 1 1 1 1 2 2 3 2 1 1 1 1 1 1 1 2 2
5 4 3 3 3 3 2 2 2 2 2 2 2 2 2 2 2 3 2 2 2 2 2 1 2 1 2 1 1 2 2 2 3 3 2 1 2 2 2 2 2 2 2
5 5 3 2 3 3 2 2 2 2 2 2 2 2 2 2 2 3 3 3 2 3 2 2 3 2 2 2 2 2 2 2 2 2 2 2 2 1 1 2 2 2 3
5 5 4 3 3 3 2 2 2 2 2 2 2 2 2 2 2 3 3 2 2 2 2 3 3 3 3 3 3 3 2 2 2 2 2 2 2 1 1 2 2 2 2
5 5 4 4 3 2 2 2 2 2 2 2 2 2 2 2 2 3 3 3 2 2 2 3 3 4 5 4 3 3 3 3 2 2 2 2 2 2 2 2 3 2 3
5 4 3 3 3 3 3 2 2 2 2 1 2 2 2 2 2 3 3 3 3 3 3 3 3 3 4 5 5 5 5 4 4 3 3 4 4 4 2 2 2 2 3
4 4 3 3 3 3 2 2 2 2 2 2 2 2 2 3 3 4 4 3 3 3 3 3 2 2 3 3 3 4 4 6 6 5 5 5 5 5 4 4 4 4 4
3 2 3 3 3 2 2 2 2 2 2 2 2 2 2 2 3 4 4 3 2 3 3 3 2 3 3 2 2 2 3 3 4 4 5 6 5 5 6 5 4 3 3
2 2 2 3 3 2 2 2 1 2 1 1 1 2 2 2 2 2 2 1 1 2 2 2 3 3 3 2 2 2 2 3 3 4 5 6 6 6 5 3 3 3 3
3 2 2 3 3 3 3 2 1 2 2 1 1 1 2 2 2 2 2 1 1 1 1 2 3 3 3 2 2 2 3 3 3 3 3 3 3 4 6 6 5 4 3
2 2 2 2 2 2 2 2 2 2 1 1 1 1 1 2 2 2 3 2 2 2 2 2 2 3 3 3 2 2 4 3 2 2 2 2 2 2 3 4 4 5 5
3 2 2 2 2 2 2 2 2 2 2 1 0 1 1 1 1 2 3 3 2 2 2 2 2 3 3 3 2 2 3 2 1 1 2 2 2 3 3 3 4 4 5
2 2 1 1 1 2 2 2 1 2 2 1 1 1 1 1 1 2 3 3 3 2 2 3 3 3 2 1 1 2 2 1 1 1 2 3 3 3 3 2 3 3 3
2 2 2 2 1 1 1 1 2 2 2 2 2 2 1 1 2 1 1 1 1 1 1 1 2 1 1 1 1 1 1 1 2 2 3 3 2 2 2 2 2 2 2
2 2 2 2 2 2 1 1 2 2 3 3 3 3 2 2 2 1 1 1 2 1 1 0 1 1 1 1 1 1 1 1 2 2 2 2 2 2 2 2 2 2 2
3 3 2 2 2 2 2 0 1 1 1 3 4 3 2 3 2 1 1 2 1 2 2 1 0 1 1 1 1 1 1 2 2 2 2 2 2 2 2 2 2 2 2
3 3 2 3 3 3 2 2 1 1 1 1 1 2 3 3 2 2 2 1 2 3 2 1 1 2 2 2 2 2 2 2 2 2 2 2 2 2 2 2 2 2 2
3 3 3 3 3 3 3 3 3 2 1 1 1 2 2 2 2 2 2 3 1 1 1 2 2 2 2 2 2 2 2 2 1 2 2 2 2 2 2 2 2 2 2
3 3 3 3 3 3 3 2 2 3 2 2 1 1 1 1 1 1 3 2 2 2 2 2 2 2 2 2 2 2 2 2 2 2 2 2 2 2 2 2 2 2 2
3 5 4 3 3 3 3 3 3 3 3 3 2 2 1 1 1 1 1 2 2 2 2 2 2 2 1 1 1 1 2 1 1 2 2 2 2 2 2 3 2 2 2
3 3 4 3 3 3 3 3 3 3 3 3 3 2 4 3 2 2 2 2 2 2 2 2 1 1 1 1 1 1 2 2 2 2 2 2 2 2 2 2 2 2 2
2 3 3 3 2 2 3 3 3 3 3 3 2 2 4 2 2 1 1 1 1 1 2 1 1 1 1 1 1 1 1 2 2 2 2 2 2 2 2 2 2 2 1
2 3 2 2 2 3 3 3 3 3 3 3 2 2 2 2 2 2 1 1 1 1 1 1 1 1 1 1 1 1 2 2 2 2 2 2 2 2 2 2 2 2 2
2 2 2 2 2 3 3 3 3 3 3 2 2 2 2 2 2 2 1 1 1 1 1 1 1 2 2 1 1 1 1 2 2 2 2 2 2 2 2 2 2 2 2
2 2 2 2 2 2 2 2 2 2 2 2 2 2 2 2 2 2 1 1 1 1 1 1 1 1 2 2 2 2 2 2 2 1 1 1 1 2 2 2 2 2 2
1 1 1 1 2 2 2 2 2 2 2 2 2 2 2 2 2 1 1 1 1 1 1 1 1 1 1 1 2 2 2 2 2 2 1 1 1 1 2 1 2 2 2
Wind_Direction
150 148 138 144 151 149 159 176 178 177 166 168 181 185 175 168 163 161 183 178 184 225 235 210 234 226 209 204 192 194 202 194 222 258 256 264 249 270 290 277 272 261 259
146 140 144 145 142 148 165 183 175 179 183 181 182 181 181 175 169 175 194 197 200 214 232 229 246 232 228 223 201 208 215 214 212 239 259 258 245 252 264 268 273 267 265
144 138 138 152 157 168 178 188 180 183 192 184 174 177 187 190 186 195 201 208 215 222 222 224 237 224 237 234 220 220 223 222 219 228 253 252 254 254 270 273 270 273 269
153 150 157 178 185 178 178 187 189 188 190 193 185 182 188 199 201 207 211 216 222 236 234 230 231 223 226 227 223 223 218 214 215 226 247 253 254 255 231 256 275 270 268
155 162 177 183 174 168 190 198 190 187 198 196 182 185 194 200 212 211 214 214 217 238 250 246 240 237 231 225 225 218 210 217 218 227 244 252 246 233 234 241 256 277 267
151 162 173 175 177 186 197 197 179 186 204 195 196 201 216 233 228 217 218 215 221 230 246 260 260 249 247 241 239 228 213 211 219 221 233 238 242 233 228 235 244 258 271
146 154 168 170 176 187 181 169 180 193 199 217 219 213 234 257 234 224 223 215 219 228 237 248 266 278 259 252 250 245 239 231 217 216 227 235 236 227 218 227 231 236 251
146 155 156 159 166 163 160 178 184 185 193 208 223 225 233 265 250 231 219 210 219 232 237 238 249 272 273 254 244 250 253 251 236 231 235 239 240 233 221 224 230 241 258
154 176 177 171 167 163 170 190 187 175 187 202 220 228 234 273 264 228 190 200 221 244 252 250 247 258 274 256 224 242 269 284 275 253 247 250 249 240 225 212 213 218 247
186 189 181 175 171 179 186 176 174 185 193 197 232 242 236 265 273 229 195 201 232 257 273 269 260 261 262 255 230 230 255 277 289 294 282 275 260 246 224 219 218 223 236
190 170 164 176 182 183 168 163 167 177 173 186 229 273 264 265 262 233 206 205 223 239 257 274 279 274 264 259 241 236 244 259 273 283 291 290 282 264 247 233 225 224 230
172 168 172 176 185 173 158 177 179 170 165 182 205 303 305 290 266 238 223 221 222 222 245 262 272 276 275 273 264 265 268 265 259 277 291 292 288 283 272 258 243 236 239
156 167 172 164 167 169 162 163 166 163 167 193 209 255 299 309 291 259 234 230 232 233 252 261 270 273 278 281 289 288 282 260 259 272 281 288 287 286 286 280 271 254 257
162 180 173 167 170 158 160 167 175 188 201 217 224 245 281 312 309 304 277 241 241 239 263 295 300 306 327 327 328 298 270 259 255 263 276 285 292 292 291 288 278 275 272
173 183 178 176 171 161 161 179 196 216 210 208 219 214 217 259 269 253 244 238 217 208 159 83 35 10 353 348 339 318 293 287 279 279 276 289 295 295 290 288 275 270 263
185 190 193 187 180 173 168 152 14 243 240 231 228 210 219 232 252 262 263 268 226 159 138 142 280 285 287 291 292 298 296 285 285 283 281 279 282 284 294 297 288 274 277
197 202 197 190 186 186 185 188 212 330 359 275 258 231 226 232 239 240 229 207 178 152 152 200 239 260 273 279 279 283 293 292 287 276 277 277 279 281 285 292 290 284 282
204 208 199 195 193 195 198 201 204 212 243 292 294 249 238 234 228 225 189 132 121 148 196 222 242 256 259 258 269 277 285 294 292 287 284 282 283 284 281 286 289 288 279
201 202 200 195 192 192 195 201 207 212 222 238 261 275 248 222 216 202 161 157 181 198 211 232 250 258 261 262 274 281 281 282 291 291 286 282 282 286 286 288 293 291 274
208 207 202 192 189 190 192 196 204 210 218 223 230 234 178 145 169 183 185 193 201 216 224 229 245 254 261 272 287 297 300 297 297 290 286 282 278 271 274 291 299 291 273
202 202 201 196 196 199 196 197 203 207 215 223 233 218 176 177 200 205 203 205 212 220 223 224 231 247 264 282 290 300 304 304 303 296 289 288 288 286 289 295 305 304 298
190 189 190 194 197 200 199 195 195 201 210 223 239 229 192 186 185 187 203 220 231 230 226 215 226 247 253 255 260 274 292 303 305 296 291 290 289 284 287 289 292 299 299
180 181 182 187 188 192 197 194 194 200 207 216 224 213 188 192 197 190 196 213 229 245 239 213 223 256 265 260 258 257 268 280 284 277 276 280 285 285 282 281 283 295 305
173 180 183 183 181 185 192 197 199 205 209 209 208 202 196 194 196 196 195 203 210 256 264 241 238 250 259 269 279 284 288 294 291 271 266 271 282 285 286 293 295 298 299
169 173 178 181 182 185 188 191 193 200 207 208 206 200 194 192 202 211 214 214 219 234 291 301 287 272 270 284 300 307 315 313 302 292 271 270 291 295 294 292 299 300 303
167 173 180 182 184 183 182 185 188 195 202 207 206 207 205 205 212 216 217 219 224 240 267 303 300 287 299 302 309 311 310 315 319 304 276 268 287 300 306 294 297 297 306